Погода в Стерлитамаке

Хотите узнать прогноз погоды в Стерлитамаке? Тогда Вам сюда: Погода в Стерлитамаке

Поиск расширенной информации на нашем сайте:

Полезная информация:

Новости сайта



02.01.2020
Опубликован Долгосрочный прогноз погоды по городам России и ближнего зарубежья на январь 2020 года.
Карты: Прогноз на январь и февраль 2020 года, Сравнение прогнозируемой аномалии приземной температуры воздуха на январь 2020 года по разным моделям.




Погода в Стерлитамаке - сегодня

Время (UTC), дата Ветер
(°,м/с) 
Видим.   Явления Облачность Т
(°С)
Тd
(°С)
f(%) Тe
(°С)
Pmin
(гПа)
dP
(гПа)
Po
(мм)
O2
(г/м3)
Тmin Tmax R s Состояние
почвы
18 24.01.20 240 (ЮЗ) 4000 м  слаб. ливневой снег  10/10 600 м кучево-дожд. 
[Cb cap]
-9.5 -13.3 74 -9  1008.2  0.9  743  311           
21 24.01.20 200 (Ю) 10 км  {ливн. осадки}  10/6 600 м кучево-дожд., средняя 
[Cb cap|As op]
-9.3 -13.7 70 -12  1006.9  -1.3  742  311           
00 25.01.20 200 (Ю) 10 км  позёмок{ливн. осадки}  10/0 верхняя 
[Cs]
-11.9 -15.4 75 -15  1006  -1  741  314           
03 25.01.20 190 (Ю) 3{11}  4000 м  слаб. снег  10/4 300 м средняя 
[Frnb|As op]
-12.8 -16.2 76 -16  1003.1  -2.9  739  314  -13    0.0  43  равномерный
сухой снег
100% 
06 25.01.20 200 (Ю) 4{11}  4000 м  слаб. снег  10/10 600 м 
[Ns]
-11.3 -14.5 77 -15  1001.8  -1.1  738  311           
09 25.01.20 200 (Ю) 4{12}  4000 м  слаб. снег  10/10 600 м 
[Ns]
-8.7 -11.8 78 -12  1000.2  -1.4  737  308           
12 25.01.20 210 (ЮЗ) 10 км  {снег}  10/8 600 м средняя 
[Sc|Ac As]
-5.9 -9 79 -8  998.8  -1.1  736  304           
15 25.01.20 200 (Ю) 10 км    10/10 600 м 
[Sc]
-4.7 -7.4 81 -7  998.2  -0.5  736  302    -4.7     
18 25.01.20 190 (Ю) 1000 м  сильн. снег  10/10 300 м 
[Ns]
-4.9 -6.7 87 -7  996  -2.1  734  302           
21 25.01.20 190 (Ю) 1000 м  сильн. снег  10/10 300 м 
[Ns]
-3.8 -5.6 87 -6  992.5  -3.4  732  299           
00 26.01.20 220 (ЮЗ) 10 км  в посл. час снег  10/10 300 м 
[Frnb|Ns]
-1.3 -2.9 89 -2  990.4  -1.9  730  296           
03 26.01.20 тихо ()   10 км    10/10 600 м 
[Sc]
-4.3 -6.1 87 -4  990.4  -0.2  730  299  -4.9    51  равномерный
сухой снег
100% 
06 26.01.20 030 (СВ) 10 км    9/3 600 м средняя, верхняя 
[Sc|Ac trans|Ci fib]
-5.2 -6.9 88 -5  991  0.5  730  301  -7.4         
09 26.01.20 040 (СВ) 10 км    10/0 средняя 
[Ac As]
-3.8 -5.9 85 -5  991.9  731  299           
12 26.01.20 360 (С) 10 км    8/6 600 м средняя 
[Sc|Ac trans]
-3.2 -5.7 83 -3  994.3  2.3  733  299           
15 26.01.20 330 (СЗ) 10 км    10/8 600 м средняя 
[Sc|Ac As]
-3.6 -6.4 81 -5  997.6  3.2  735  301    -3       
18 26.01.20 310 (СЗ) 10 км  в посл. час ливневой снег  9/9 600 м кучево-дожд. 
[Cb cap]
-4.5 -7.4 80 -6  999.6  1.9  737  303           
21 26.01.20 290 (З) 10 км  {ливн. осадки}  10/10 600 м кучево-дожд. 
[Cb cap]
-4.5 -7.6 79 -4  1000.7  738  303           
00 27.01.20 320 (СЗ) 10 км  в посл. час ливневой снег  10/10 600 м кучево-дожд. 
[Cb cap]
-5.2 -9 75 -8  1001.9  1.2  738  304           
03 27.01.20 300 (СЗ) 10 км  {ливн. осадки}  9/6 600 м средняя 
[Sc|Ac trans]
-8.5 -12.4 73 -11  1003.9  1.7  740  309  -8.5    0.4  50  равномерный
сухой снег
100% 
06 27.01.20 210 (ЮЗ) 10 км  {ливн. осадки}  9/8 600 м кучево-дожд., средняя 
[Cb cap|Ac trans]
-9.9 -14.2 71 -10  1004.9  0.9  740  311  -10.7         
09 27.01.20 180 (Ю) 2000 м  снег  10/0 средняя 
[As op]
-8.8 -12.1 77 -10  1002.6  -2.2  739  309           
12 27.01.20 160 (Ю) 2000 м  снег  10/0 средняя 
[As op]
-7.7 -10 84 -7  999.5  -2.9  737  306           
15 27.01.20 070 (В) 1000 м  сильн. снег  10/10 600 м 
[Ns]
-7.6 -9.7 85 -7  999.3  -0.3  736  306    -7.6     
18 27.01.20 360 (С) 10 км  в посл. час снег  9/4 600 м средняя 
[Sc|Ac As]
-9.3 -11.8 82 -12  1003.9  4.4  740  310           
Время (UTC), дата Ветер
(°,м/с) 
Видим.   Явления Облачность Т
(°С)
Тd
(°С)
f(%) Тe
(°С)
Pmin
(гПа)
dP
(гПа)
Po
(мм)
O2
(г/м3)
Тmin Tmax R s Состояние
почвы

Для получения пояснительной информации подведите курсор к названию столбца.

ПОГОДА в Стерлитамаке - архив

Всё, что Вы хотите узнать о погоде в Стерлитамаке - удобно и подробно!

Выберите нужную дату (начиная с 1 января 2019* года) и нажмите кнопку "Найти".
Будут отображены архивные сводки погоды по пункту Стерлитамак, начиная с указанной даты.


Отображать данные в формате CSV (для использования в таблицах Excel)


Внимание! Наш архив погоды предназначен исключительно для личного некоммерческого использования в познавательных целях. Если Вам необходимы официальные справки о состоянии погоды (для производственных, юридических, коммерческих и т.п. целей), обращайтесь в органы Росгидромета.

*Примечание: данная дата относится к архиву по метеостанциям СССР (Россия, СНГ, Балтия).
Архив по метеостанциям Зарубежной Европы и Азии (кроме Китая) хранится 10 дней, по другим регионам земного шара (Китай, Африка, Америка, Австралия, Океания) - 1 день.

Стерлитамак - район местоположения метеостанции


Название, широта, долгота, высота метеостанции:
Стерлитамак 53.6°ш. 56°д. 137 м над ур. моря [Российская Федерация]

Дополнительная информация

В oтличие oт бoльшинства пoгoдных сайтoв мы публикуем пoдрoбную метеoинфoрмацию в детальнoм прoфессиoнальнoм фoрмате.

Характеристики температуры и влажнoсти вoздуха измеряются на высoте 2 м в тени вдали oт зданий и деревьев.
Скoрoсть ветра измеряется на высoте 10 м (на урoвне рoста челoвека скoрoсть ветра ниже в 1.5-2 раза). Если метеoстанция нахoдится в гoрoде или в лесу, тo скoрoсть ветра занижена на 2-4 м/с пo сравнению с oткрытым местoм. Скoрoсть ветра над акватoриями крупных рек и oзёр, а также на вершинах хoлмoв на 2-5 м/с выше, чем в oбычных услoвиях.
Атмoсфернoе давление в разных тoчках местнoсти мoжет значительнo oтличаться oт давления на метеoстанции, в зависимoсти oт услoвий рельефа (при пoдъёме на 10 м давление пoнижается примернo на 1 мм рт.ст.).